Flag for Canada Weather past 2 weeks in Charlottetown, Pr.Edward I, Canada

Now
64 °F

Broken clouds.


Feels Like: 64 °F
Forecast: N/A
Wind: 9 mph from North

Location: Charlottetown

Current Time: Aug 20, 2014 at 8:22:17 PM

Latest Report: Aug 20, 2014 at 7:00 PM


Visibility: 15 mi

Pressure: 30.03 "Hg

Humidity: 73%

Dew point: 55 °F

Location of CharlottetownLocation

Historic Weather in Charlottetown — Graph

°F

Charlottetown temperature yesterday

Maximum temperature yesterday: 68 °F (at 5:00 PM)
Minimum temperature yesterday: 61 °F (at 1:00 AM)
Average temperature yesterday: 63 °F

Past Weeks' High & Low Weather Summary

 TemperatureHumidityPressure
High77 °F (Aug 6, 2:00 PM)100% (Aug 6, 3:00 AM)30.19 "Hg (Aug 6, 3:00 AM)
Low52 °F (Aug 9, 5:00 AM)54% (Aug 13, 3:00 PM)29.52 "Hg (Aug 18, 6:00 PM)
Average64 °F86%29.90 "Hg
* Reported Aug 5 7:00 PM — Aug 20 7:00 PM, Charlottetown, Weather by CustomWeather, © 2014

Note: Actual official high and low records may vary slightly from our data, if they occured in-between our weather recording intervals... More about our weather records

Advertising

Charlottetown weather history for previous 24 hours

 ConditionsComfort  
Time TempWeatherWind HumidityBarometerVisibility
7:00 PM
Aug 20
64 °FBroken clouds.9 mph73%30.03 "Hg15 mi
6:00 PM66 °FPartly sunny.10 mph68%30.02 "Hg15 mi
5:00 PM66 °FPartly sunny.13 mph68%30.01 "Hg15 mi
4:00 PM68 °FBroken clouds.10 mph64%30.00 "Hg15 mi
3:00 PM66 °FPartly sunny.9 mph73%29.99 "Hg15 mi
2:00 PM66 °FBroken clouds.9 mph73%29.98 "Hg15 mi
1:00 PM66 °FPartly sunny.8 mph78%29.98 "Hg15 mi
12:00 PM66 °FPartly sunny.9 mph73%29.97 "Hg15 mi
11:00 AM66 °FPartly sunny.13 mph68%29.95 "Hg15 mi
10:00 AM64 °FPartly sunny.6 mph83%29.93 "Hg15 mi
9:00 AM64 °FBroken clouds.8 mph83%29.92 "Hg15 mi
8:00 AM63 °FBroken clouds.5 mph94%29.90 "Hg15 mi
7:00 AM61 °FPartly cloudy.6 mph88%29.88 "Hg15 mi
6:00 AM59 °FPassing clouds.6 mph94%29.85 "Hg15 mi
5:00 AM61 °FPassing clouds.8 mph94%29.84 "Hg15 mi
4:00 AM59 °FPassing clouds.6 mph100%29.83 "Hg15 mi
3:00 AM59 °FPassing clouds.5 mph100%29.82 "Hg15 mi
2:00 AM61 °FPassing clouds.5 mph94%29.82 "Hg15 mi
1:00 AM63 °FPartly cloudy.6 mph94%29.81 "Hg15 mi
12:00 AM63 °FPartly cloudy.7 mph94%29.81 "Hg15 mi
11:00 PM
Aug 19
63 °FPartly cloudy.5 mph94%29.80 "Hg15 mi
10:00 PM63 °FPassing clouds.5 mph94%29.80 "Hg15 mi
9:00 PM63 °FPartly sunny.6 mph88%29.79 "Hg15 mi
8:00 PM64 °FBroken clouds.5 mph83%29.78 "Hg15 mi
Weather by CustomWeather, © 2014

See weather overviewHow to use our weather pages